Location: Newark
(48.8656°N, 2.3211°E)
Time: 23:00:35
(UTC+00:00)

Envisat - Pass Details

Date: 16 December 2019
Orbit: 764 x 766 km, 98.1° (Epoch: 21 January)

Event Time Altitude Azimuth Distance (km) Brightness Sun altitude
Rises 18:54:09 0° 205° (SSW) 3,222 6.6 -28.3°
Reaches altitude 10° 18:57:01 10° 222° (SW) 2,301 6.0 -28.8°
Maximum altitude 19:00:46 21° 270° (W) 1,694 5.5 -29.4°
Drops below altitude 10° 19:04:33 10° 318° (NW) 2,314 5.9 -30.0°
Sets 19:07:27 0° 334° (NNW) 3,246 6.5 -30.5°
